Game Details

[ Leader Board ] [ Players ] [ Opponents ] [ Guilds ] [ Areas ]

Game Details for: beef

Game Progress

Quest Completed on Day
Mushroom Stew 8

Full Telemetry

Time Game Day Game Hour Game Minute Type Details Value Extra Zone X Y Credits Guild
5/7/2020 10:28:49 PM 16 11 48 Save 0 0 InsectForest 22 21 513 None
5/7/2020 10:26:54 PM 16 11 45 Save 0 1 InsectForest 27 26 443 None
5/7/2020 10:24:41 PM 16 11 28 Save 0 2 InsectForest 6 12 313 None
5/6/2020 11:50:59 PM 9 14 33 Save 0 2 Village1 11 8 39 None
5/6/2020 11:25:58 PM 2 8 32 Daily ???? 498 BuildingHouse1 2 3 0 None
5/6/2020 11:50:44 PM 9 14 32 Train Accuracy 2 Village1 5 8 39 None
5/7/2020 10:22:41 PM 16 8 41 Daily beef 1279 Village1 10 27 288 None
5/7/2020 4:10:21 PM 15 4 42 Daily beef 1186 Village1 10 27 142 None
5/7/2020 4:09:23 PM 14 4 22 Daily beef 1186 Village1 6 26 111 None
5/7/2020 4:02:12 PM 13 8 11 Daily beef 896 Village1 10 27 91 None
5/7/2020 3:56:12 PM 12 8 56 Daily beef 876 Village1 10 27 285 None
5/7/2020 3:49:14 PM 11 0 54 Daily beef 876 Village1 6 26 120 None
5/7/2020 3:48:58 PM 10 11 47 Daily beef 876 Village1 10 27 102 None
5/6/2020 11:49:05 PM 9 8 21 Daily beef 720 Village1 10 27 284 None
5/6/2020 11:41:42 PM 8 3 9 Daily beef 647 Village1 10 27 143 None
5/6/2020 11:39:59 PM 7 8 44 Daily beef 498 Village1 10 27 134 None
5/6/2020 11:39:30 PM 6 10 32 Daily beef 498 Village1 10 27 97 None
5/6/2020 11:38:37 PM 5 8 23 Daily beef 498 Village1 10 27 0 None
5/6/2020 11:34:33 PM 4 0 37 Daily beef 498 Village1 10 27 133 None
5/6/2020 11:33:42 PM 3 12 24 Daily beef 498 Village1 10 27 103 None
5/6/2020 11:25:16 PM 1 8 25 Combat Chaak Larva 0 Win InsectCave 17 14 0 None
5/6/2020 11:24:19 PM 1 8 21 Combat Chaak Larva 0 Win InsectBasement 10 4 0 None
5/6/2020 11:21:38 PM 1 8 4 Combat Chaak Larva 0 Win InsectBasement 21 13 0 None
5/6/2020 11:20:51 PM 1 8 3 Combat Chaak Larva 0 Win InsectBasement 17 15 0 None
5/6/2020 11:42:28 PM 8 19 18 Equip Cloth Armor 73 Village1 22 25 118 None
5/6/2020 11:40:22 PM 7 10 52 Train Defense 2 Village1 4 9 122 None
5/6/2020 11:50:30 PM 9 10 32 Train Endurance 2 Village1 5 8 95 None
5/7/2020 4:08:48 PM 13 14 14 Equip Fine Cloth Armor 148 Village1 22 25 47 None
5/7/2020 10:17:03 PM 15 8 46 Equip Fine Kinetic Field 208 Village1 22 25 4 None
5/7/2020 4:15:04 PM 15 11 29 Equip Fine Kinetic Field 208 Village1 22 25 120 None